Location: Beccas
(43.4309°N, 0.1528°E)
Time: 08:44:45
(UTC+00:00)

Cosmos 1703 - Pass Details

Date: 27 May 2022
Orbit: 518 x 535 km, 82.5° (Epoch: 06 July)

Event Time Altitude Azimuth Distance (km) Brightness Sun altitude
Exits shadow 03:01:10 20° 232° (SW) 1,271 4.5 -12.7°
Maximum altitude 03:03:15 34° 284° (WNW) 897 4.1 -12.4°
Drops below altitude 10° 03:06:52 10° 350° (N) 1,794 6.4 -11.9°
Sets 03:09:11 0° 0° (N) 2,688 7.6 -11.6°
